View from above orbital plane
|
View from above satellite
|
Ground track
|
The orbit data is extracted from the following two-line orbital elements,
1 20580U 90037B 21057.23493038 .00000696 00000-0 31269-4 0 9997
2 20580 28.4722 80.9420 0002557 303.3749 56.6588 15.09566338494431
Epoch (UTC): | 26 February 2021 05:38:17 |
Eccentricity: | 0.0002557 |
inclination: | 28.4722° |
perigee height: | 536 km |
apogee height: | 539 km |
right ascension of ascending node: | 80.9420° |
argument of perigee: | 303.3749° |
revolutions per day: | 15.09566338 |
mean anomaly at epoch: | 56.6588° |
orbit number at epoch: | 49443 |
The dashed part of the orbit path shows where the satellite is in the earth's shadow,
|
|